COSMOS 2251 DEB, 36614

Orbit data source: Space-Track

COSMOS 2251 DEB, 36614 is space debris in LEO originally from a launch on Wed, 16 Jun 1993 UTC launched from the Plesetsk Missile And Space Complex (PKMTR). The debris from Iridium 33, an American commercial communications satellite, has been tracked extensively since its accidental collision with the defunct Russian satellite Cosmos 2251 in 2009. This event, occurring at high speed in low Earth orbit (LEO), generated thousands of pieces of space debris, significantly increasing the risk of further collisions. The Iridium 33 debris cloud has impacted space traffic management and orbital debris mitigation strategies, making it a subject of ongoing study in space situational awareness.

Loading next visibility...
Identifier
36614, 1993-036BEC
Orbit
LEO
Country
Flag of CISCIS
Related business
Manufacturer
Unknown
Mission
Spacecraft
Bus & Motor
Unknown
Mass
Unknown
Launch date (UTC)
1993-06-16 (33 years ago)
Launch vehicle
Unknown
Launch site
Plesetsk Missile And Space Complex (PKMTR)
Object type
Payload
Rocket body
Debris
Shape & HBR
Unknown shape, 0.1 m
Radar Cross Section
Small (<0.1 m²)

Expand to show TLE details & history
Last TLE update: 1 day ago

TLE from 1 day ago
0 COSMOS 2251 DEB
1 36614U 93036BEC 25354.72505906  .00004218  00000-0  87624-3 0  9999
2 36614  74.0208 159.3271 0015826 229.1193 130.8602 14.60353691657297
Epoch: 2025-12-20T17:24Z
TLE epoch observation values (Epoch: 2025-12-20T17:24:05.102Z)
Latitude
-0.00008°
Longitude
168.75808°
Altitude
702.003 km
Speed
7.501 km/s
True Right ascension
10h 37m 18s
True Declination
0° 00' 00"
Sunlit
Object was in daylight at epoch
Visualization orbit readout
Latitude
Unknown
Longitude
Unknown
Altitude
Unknown
Speed
Unknown
Apparent Right ascension
Unknown
Apparent Declination
Unknown
Sunlit
N/A
Visualization observer readout
Local Sidereal Time
16:34:43
Azimuth
Unknown
Elevation
Unknown
Doppler factor
Unknown
Orbital elements
Apogee altitude
700.816 km
Perigee altitude
678.445 km
Semi-major axis
7,067.768 km
Eccentricity
0.00158
Inclination
74.0208°
RAAN
159.3271°
Arg. of periapsis
229.1193°
True anomaly
130.99718°
Mean anomaly
130.8602°
Eccentric anomaly
130.92871°
Mean motion
3.65275 °/min
Orbital period
98.56 mins
BSTAR
0.00087624
Loading maneuver chart data...
Computing Atmospheric mass density...

Documentation

Showing up to 5 results
|